Weather History for Hazlehurst, GA

Change the Weather History Date:

Tuesday, October 23, 2012

  Actual Average Record
Temperature  
Mean Temperature 63 °F -  
Max Temperature 78 °F 82 °F 73 °F (2014)
Min Temperature 48 °F 50 °F 46 °F (2014)
Degree Days  
Heating Degree Days 2    
Growing Degree Days 13 (Base 50)    
Moisture  
Dew Point 57 °F    
Average Humidity 79    
Maximum Humidity 100    
Minimum Humidity 52    
Precipitation  
Precipitation 0.00 in - - ()
Sea Level Pressure  
Sea Level Pressure 30.13 in    
Wind  
Wind Speed 2 mph ()    
Max Wind Speed 7 mph    
Max Gust Speed -    
Visibility 10.0 miles    
Events      
Averages and records for this station are not official NWS values.
T = Trace of Precipitation, MM = Missing Value Source: Averaged Metar Reports

Daily Weather History Graph

Daily Weather History Graph

Search for Another Location

Airport:

Trip Planner

Search our weather history database for the weather conditions in past years. The results will help you decide how hot, cold, wet, or windy it might be!

Date:

Astronomy

Oct. 23, 2012 Rise Set
Actual Time 7:40 AM EDT 6:48 PM EDT
Civil Twilight 7:15 AM EDT 7:13 PM EDT
Nautical Twilight 6:46 AM EDT 7:42 PM EDT
Astronomical Twilight 6:18 AM EDT 8:10 PM EDT
Moon 3:13 PM EDT (10/23) 1:52 AM EDT (10/23)
Length of Visible Light 11h 58m
Length of Day
11h 08m
Waxing Gibbous, 66% of the Moon is Illuminated
Oct 23
Waxing Gibbous
Oct 29
Full
Nov 6
Last Quarter
Nov 13
New
Nov 20
First Quarter

Hourly Weather History & Observations

Time (EDT) Temp. Dew Point Humidity Pressure Visibility Wind Dir Wind Speed Gust Speed Precip Events Conditions
12:15 AM 57.6 °F 51.3 °F 79% 30.18 in 10.0 mi Calm Calm - N/A   Clear
12:35 AM 57.2 °F 51.6 °F 82% 30.17 in 10.0 mi SE 3.5 mph - N/A   Clear
1:15 AM 56.5 °F 51.8 °F 84% 30.17 in 10.0 mi SE 3.5 mph - N/A   Clear
1:35 AM 55.8 °F 52.0 °F 87% 30.16 in 10.0 mi Calm Calm - N/A   Clear
2:15 AM 56.5 °F 52.9 °F 88% 30.15 in 10.0 mi ESE 3.5 mph - N/A   Clear
2:35 AM 55.6 °F 52.7 °F 90% 30.14 in 10.0 mi Calm Calm - N/A   Clear
2:55 AM 52.0 °F 52.2 °F 100% 30.14 in 10.0 mi Calm Calm - N/A   Clear
3:15 AM 51.8 °F 51.4 °F 99% 30.13 in 10.0 mi Calm Calm - N/A   Clear
3:55 AM 49.8 °F 49.6 °F 99% 30.12 in 10.0 mi Calm Calm - N/A   Clear
4:15 AM 48.9 °F 48.9 °F 100% 30.12 in 10.0 mi Calm Calm - N/A   Clear
4:35 AM 49.1 °F 49.3 °F 100% 30.12 in 10.0 mi Calm Calm - N/A   Clear
4:55 AM 49.6 °F 49.6 °F 100% 30.12 in 10.0 mi Calm Calm - N/A   Clear
5:15 AM 49.5 °F 49.5 °F 100% 30.12 in 10.0 mi Calm Calm - N/A   Clear
5:35 AM 49.3 °F 49.3 °F 100% 30.13 in 10.0 mi Calm Calm - N/A   Clear
5:55 AM 48.4 °F 48.4 °F 100% 30.13 in 10.0 mi Calm Calm - N/A   Clear
6:15 AM 49.1 °F 49.1 °F 100% 30.13 in 10.0 mi Calm Calm - N/A   Clear
6:35 AM 50.4 °F 49.8 °F 98% 30.14 in 10.0 mi Calm Calm - N/A   Clear
6:55 AM 51.1 °F 50.2 °F 97% 30.14 in 10.0 mi Calm Calm - N/A   Clear
7:35 AM 52.0 °F 50.9 °F 96% 30.15 in 10.0 mi ENE 4.6 mph - N/A   Clear
7:55 AM 52.0 °F 51.1 °F 97% 30.16 in 10.0 mi ENE 3.5 mph - N/A   Clear
8:15 AM 52.3 °F 51.3 °F 96% 30.17 in 10.0 mi Calm Calm - N/A   Clear
8:35 AM 53.4 °F 52.0 °F 95% 30.17 in 10.0 mi Calm Calm - N/A   Clear
8:55 AM 54.9 °F 52.7 °F 92% 30.17 in 10.0 mi Calm Calm - N/A   Clear
9:15 AM 56.8 °F 53.8 °F 89% 30.18 in 10.0 mi Calm Calm - N/A   Clear
9:35 AM 59.2 °F 54.5 °F 84% 30.18 in 10.0 mi Calm Calm - N/A   Clear
9:55 AM 61.5 °F 55.8 °F 81% 30.19 in 10.0 mi ENE 4.6 mph - N/A   Clear
10:15 AM 63.9 °F 57.2 °F 79% 30.19 in 10.0 mi ENE 4.6 mph - N/A   Clear
10:35 AM 66.2 °F 58.8 °F 77% 30.19 in 10.0 mi East 4.6 mph - N/A   Clear
10:55 AM 67.8 °F 59.7 °F 75% 30.19 in 10.0 mi East 5.8 mph - N/A   Clear
11:15 AM 69.4 °F 60.4 °F 73% 30.18 in 10.0 mi ENE 4.6 mph - N/A   Clear
11:55 AM 71.6 °F 61.3 °F 70% 30.17 in 10.0 mi NE 5.8 mph - N/A   Clear
12:15 PM 73.0 °F 61.5 °F 67% 30.17 in 10.0 mi ENE 3.5 mph - N/A   Clear
12:35 PM 73.8 °F 61.9 °F 66% 30.16 in 10.0 mi East 5.8 mph - N/A   Clear
12:55 PM 74.8 °F 61.7 °F 64% 30.15 in 10.0 mi SE 3.5 mph - N/A   Clear
1:15 PM 75.7 °F 61.7 °F 62% 30.14 in 10.0 mi East 6.9 mph - N/A   Scattered Clouds
1:35 PM 76.3 °F 61.9 °F 61% 30.13 in 10.0 mi Calm Calm - N/A   Clear
1:55 PM 76.3 °F 61.5 °F 60% 30.12 in 10.0 mi Calm Calm - N/A   Scattered Clouds
2:15 PM 76.6 °F 61.0 °F 58% 30.12 in 10.0 mi Calm Calm - N/A   Scattered Clouds
2:35 PM 77.4 °F 60.3 °F 55% 30.10 in 10.0 mi East 3.5 mph - N/A   Scattered Clouds
2:55 PM 77.7 °F 60.8 °F 56% 30.10 in 10.0 mi East 5.8 mph - N/A   Mostly Cloudy
3:15 PM 77.7 °F 61.0 °F 56% 30.09 in 10.0 mi Calm Calm - N/A   Scattered Clouds
3:55 PM 78.3 °F 59.5 °F 52% 30.09 in 10.0 mi ESE 6.9 mph - N/A   Scattered Clouds
4:15 PM 77.9 °F 59.7 °F 53% 30.09 in 10.0 mi Calm Calm - N/A   Scattered Clouds
4:35 PM 78.4 °F 59.9 °F 53% 30.09 in 10.0 mi ENE 4.6 mph - N/A   Mostly Cloudy
4:55 PM 78.3 °F 59.2 °F 52% 30.09 in 10.0 mi East 4.6 mph - N/A   Scattered Clouds
5:15 PM 78.3 °F 59.4 °F 52% 30.08 in 10.0 mi ENE 4.6 mph - N/A   Scattered Clouds
5:35 PM 77.2 °F 59.0 °F 53% 30.08 in 10.0 mi East 4.6 mph - N/A   Scattered Clouds
5:55 PM 75.6 °F 59.5 °F 57% 30.08 in 10.0 mi ENE 3.5 mph - N/A   Scattered Clouds
6:15 PM 74.3 °F 59.9 °F 61% 30.09 in 10.0 mi Calm Calm - N/A   Clear
6:35 PM 72.0 °F 60.6 °F 67% 30.09 in 10.0 mi Calm Calm - N/A   Clear
6:55 PM 69.4 °F 60.8 °F 74% 30.09 in 10.0 mi Calm Calm - N/A   Clear
7:15 PM 69.1 °F 60.1 °F 73% 30.10 in 10.0 mi East 3.5 mph - N/A   Clear
7:35 PM 68.0 °F 59.7 °F 75% 30.10 in 10.0 mi Calm Calm - N/A   Clear
7:55 PM 66.9 °F 59.7 °F 78% 30.11 in 10.0 mi Calm Calm - N/A   Clear
8:15 PM 66.6 °F 59.5 °F 78% 30.11 in 10.0 mi East 3.5 mph - N/A   Clear
8:35 PM 66.4 °F 59.4 °F 78% 30.12 in 10.0 mi ESE 4.6 mph - N/A   Clear
8:55 PM 67.8 °F 59.7 °F 75% 30.12 in 10.0 mi Calm Calm - N/A   Clear
9:15 PM 67.5 °F 60.3 °F 78% 30.12 in 10.0 mi SE 3.5 mph - N/A   Clear
9:35 PM 66.9 °F 60.8 °F 81% 30.13 in 10.0 mi SE 5.8 mph - N/A   Clear
9:55 PM 66.6 °F 61.2 °F 83% 30.13 in 10.0 mi ESE 4.6 mph - N/A   Clear
10:15 PM 65.5 °F 61.3 °F 86% 30.13 in 10.0 mi SE 4.6 mph - N/A   Clear
10:35 PM 65.3 °F 61.9 °F 89% 30.13 in 10.0 mi SE 4.6 mph - N/A   Clear
10:55 PM 64.6 °F 62.2 °F 92% 30.13 in 10.0 mi ESE 3.5 mph - N/A   Clear
11:15 PM 64.0 °F 62.1 °F 93% 30.14 in 10.0 mi ESE 3.5 mph - N/A   Clear
11:35 PM 63.1 °F 62.1 °F 96% 30.14 in 10.0 mi Calm Calm - N/A   Clear
11:55 PM 62.6 °F 61.9 °F 97% 30.14 in 10.0 mi Calm Calm - N/A   Clear